Wind_Speed
73 74 75 75 76 76 76 76 76 76 75 75 74 74 74 74 74 75 76 77 79 80 81 82 83 83 84 85 85 85 85 85 85 84 84 84 84 84 84 83 83 83 82 82 82 82 82 82 82 82 83 83 83 83 83 83 83 83 84 84 84 84 85 87 87 86 85 85 85 85 85 85 85 84 83 81 79 78 77 75 74 72 71 70 70
74 74 75 76 77 78 78 79 79 79 79 79 79 79 79 78 78 78 78 78 78 79 80 80 81 82 83 84 85 86 86 86 86 85 85 85 85 85 85 85 85 85 85 85 84 85 85 85 85 85 85 85 85 85 85 85 86 86 86 86 86 86 87 88 89 89 88 88 87 87 87 87 87 87 86 84 82 80 79 78 76 75 74 73 71
76 76 76 77 77 78 79 79 80 81 81 82 82 82 83 83 83 82 82 82 82 82 82 82 82 83 83 84 85 86 86 87 87 87 87 87 87 86 86 87 87 87 87 87 86 87 87 87 87 87 87 88 88 88 88 88 88 88 88 88 88 88 88 89 90 91 91 91 90 89 88 88 89 89 89 87 85 83 82 81 79 78 77 76 75
79 80 79 79 79 80 80 80 81 81 82 82 83 83 84 85 85 86 86 85 86 86 86 86 87 86 86 86 86 87 87 88 88 89 89 89 89 88 88 88 88 88 88 88 88 88 88 88 89 89 89 90 90 90 90 90 90 91 90 90 90 90 90 90 91 92 92 92 92 91 90 90 90 90 90 90 88 86 84 83 82 81 80 80 79
81 82 82 83 83 83 83 83 83 83 83 84 84 84 85 85 86 87 87 88 88 88 89 89 90 90 91 91 91 91 91 91 91 92 92 92 92 91 91 90 90 89 89 89 89 90 90 90 90 91 91 92 92 92 92 92 92 92 92 92 91 91 91 91 91 92 93 93 92 92 91 91 91 91 91 91 90 89 88 86 85 85 84 84 83
79 80 81 83 83 84 84 84 84 84 85 85 85 86 86 87 87 88 88 89 89 90 90 91 92 92 93 93 93 94 94 94 95 95 96 96 95 95 95 94 94 93 93 92 92 92 92 92 92 93 93 94 94 94 94 94 94 94 94 93 94 94 94 93 93 93 93 94 93 93 92 92 92 92 92 92 92 91 91 90 89 88 88 87 86
79 79 80 81 82 83 84 84 85 85 85 85 86 86 87 87 88 89 89 90 90 91 91 92 92 93 94 95 95 95 95 96 96 97 98 98 98 98 98 98 98 97 97 97 96 96 95 95 95 95 96 96 96 96 96 96 96 96 96 96 96 96 96 96 96 96 96 96 96 95 95 94 94 94 94 94 94 93 93 93 92 91 91 90 89
80 81 81 81 81 82 83 84 85 85 86 86 87 87 87 88 88 89 90 90 91 91 92 92 93 94 95 96 96 97 97 97 97 98 98 99 99 99 99 99 99 99 99 99 99 99 99 99 99 98 98 98 98 99 99 99 99 99 99 99 99 99 99 99 98 98 99 99 98 98 98 97 97 96 96 96 96 95 95 95 95 94 93 92 90
83 84 84 85 85 85 85 85 86 86 87 88 88 89 89 89 89 89 90 91 91 91 92 92 93 93 94 95 96 97 98 98 98 99 99 100 100 100 100 100 99 99 98 98 97 96 96 96 97 98 99 99 99 100 100 100 101 100 100 100 100 100 101 100 100 100 100 99 99 99 98 98 97 95 94 94 94 95 94 94 94 94 93 93 91
88 88 89 89 89 90 90 90 90 90 90 91 91 91 92 92 92 92 92 93 93 93 93 93 93 94 94 94 95 96 97 98 98 99 100 100 101 101 101 101 100 100 99 98 97 95 93 91 90 90 91 92 94 95 96 97 98 99 99 99 99 99 99 99 98 98 98 98 98 97 97 96 94 93 92 91 91 92 92 92 92 92 92 92 90
90 91 92 92 93 93 93 93 94 94 94 94 95 95 96 96 96 96 96 96 97 97 97 97 97 97 96 96 96 96 97 97 98 99 99 100 101 102 102 102 101 101 100 100 99 97 96 94 91 88 87 86 85 86 86 87 88 89 90 90 91 91 92 93 93 93 94 94 94 94 94 93 92 90 89 89 89 89 89 89 90 90 90 91 90
87 88 89 90 91 92 92 93 93 94 94 95 95 96 97 98 98 99 99 100 101 101 101 101 101 101 101 101 100 100 99 100 100 100 100 101 101 102 102 102 102 102 102 101 101 100 98 97 96 94 92 90 89 87 86 85 84 84 84 84 84 84 84 84 85 85 86 87 88 89 89 89 89 88 87 87 87 88 89 89 90 90 90 91 91
82 83 84 85 86 87 88 88 89 90 90 91 92 93 94 95 96 97 98 99 100 101 102 103 104 104 105 105 105 104 104 104 104 104 104 104 104 104 104 104 103 103 103 102 102 102 101 100 99 98 97 96 96 96 95 94 93 91 90 89 88 87 85 84 83 82 82 83 84 84 84 85 85 85 84 85 87 88 89 89 89 89 89 89 90
82 83 84 85 86 87 87 87 88 88 89 90 91 91 92 93 94 94 95 96 97 98 99 100 101 103 104 105 106 107 107 108 108 108 108 108 108 108 108 107 107 106 106 105 104 104 103 102 102 101 100 99 98 99 99 99 99 98 97 95 94 93 91 90 88 87 86 85 85 84 82 82 83 82 81 82 84 84 84 84 84 84 85 86 86
85 86 87 87 88 89 90 90 90 91 91 92 93 93 94 95 95 95 96 96 96 97 97 98 98 99 100 101 103 104 105 107 108 109 109 110 110 111 111 110 110 110 109 109 109 108 107 106 105 104 103 102 101 100 100 100 100 101 101 100 99 99 98 97 96 95 94 95 94 91 88 86 86 85 83 83 84 84 83 83 82 81 82 83 83
89 90 91 92 92 93 93 93 93 94 95 95 96 96 97 97 98 98 99 99 99 99 99 99 99 100 100 101 101 101 102 103 105 106 107 108 109 110 111 111 111 111 111 111 110 110 110 109 109 108 107 106 106 105 104 103 102 101 100 100 100 100 100 100 100 100 100 102 103 102 99 96 94 93 92 91 91 91 91 89 87 85 86 87 85
93 93 94 95 96 97 97 97 97 98 98 98 99 99 100 100 101 102 102 102 102 102 103 103 103 103 103 103 103 103 103 103 103 104 105 106 107 108 108 109 109 109 109 110 110 110 110 110 109 109 108 108 108 108 107 107 106 104 103 102 101 100 100 100 100 100 100 101 102 103 104 104 103 101 100 99 99 99 99 98 95 94 95 94 92
95 96 97 98 99 100 101 102 102 102 102 103 103 103 103 104 104 105 105 106 105 106 106 106 106 106 106 106 106 106 106 105 106 106 106 107 107 107 107 107 107 107 107 107 107 108 108 108 108 108 108 108 108 107 107 107 107 106 105 104 103 102 102 102 102 102 102 102 101 101 103 104 104 104 103 102 102 102 103 102 101 100 101 101 99
98 99 100 101 102 103 104 105 105 106 106 106 106 107 107 107 107 107 108 108 108 108 109 109 109 109 109 109 108 108 108 108 108 108 109 109 109 109 109 108 107 106 106 106 105 105 105 105 105 105 106 106 106 105 105 106 106 105 105 105 104 102 103 103 103 103 103 103 103 102 102 102 102 103 103 102 102 102 102 102 101 101 101 102 101
101 101 103 104 105 106 107 107 108 109 109 109 109 110 110 110 110 110 111 111 111 110 111 111 111 111 110 110 110 110 109 109 109 109 110 110 111 111 111 111 110 109 108 106 105 104 103 103 102 102 102 103 102 102 102 102 103 103 103 102 101 100 101 101 101 101 101 102 102 102 102 102 102 102 102 102 103 103 102 101 100 99 99 99 100
103 105 106 107 108 109 111 112 112 113 113 114 114 114 115 115 115 115 115 115 114 114 114 114 114 113 113 112 112 111 111 111 110 110 111 111 111 112 112 112 111 111 110 108 107 105 104 103 102 101 101 101 100 98 98 98 98 99 98 98 97 97 97 96 96 96 97 97 98 99 99 100 100 100 100 101 101 101 101 100 99 98 97 97 97
107 109 110 111 112 113 114 115 115 115 116 116 115 115 116 116 116 116 116 116 116 116 115 116 116 116 115 115 115 115 114 114 113 113 113 113 113 113 112 112 112 112 111 110 109 108 106 105 104 103 102 102 100 98 97 96 96 96 95 95 94 93 93 92 91 91 91 91 91 92 92 92 93 93 94 94 94 94 95 95 95 94 94 94 94
111 112 112 112 113 113 112 112 111 111 110 110 109 109 109 109 109 109 110 110 110 110 110 110 111 112 112 113 114 115 115 115 115 115 116 116 116 115 114 113 113 113 112 111 110 109 108 107 106 105 104 103 101 100 98 97 96 95 94 93 93 92 91 90 89 88 87 87 86 86 85 85 85 85 85 86 86 86 87 88 88 89 89 89 90
109 109 108 107 105 104 103 101 100 99 98 98 97 96 96 96 96 97 97 98 98 99 99 99 100 101 102 103 104 106 107 109 110 112 113 114 115 115 115 114 114 113 113 111 110 109 108 108 107 106 105 103 102 100 99 97 96 95 94 93 92 91 90 89 88 87 85 84 83 83 82 82 81 81 80 80 80 80 81 81 81 82 81 81 81
100 98 96 94 93 91 89 87 86 85 84 84 83 82 82 82 82 83 83 84 85 86 87 88 89 89 90 91 91 92 94 96 98 100 102 104 106 108 109 110 110 111 111 110 109 108 107 107 106 106 105 103 102 100 98 97 96 94 93 92 91 89 89 87 86 85 84 83 81 81 80 79 79 78 77 77 76 75 74 74 73 73 72 72 71
86 84 83 81 79 77 75 73 72 70 70 69 69 69 69 69 70 70 70 71 72 73 75 76 77 78 79 79 79 80 81 83 85 87 90 92 94 96 98 100 101 103 103 104 104 104 104 104 103 103 102 101 100 99 97 96 95 93 92 90 89 88 87 86 84 83 82 81 80 78 78 77 76 76 75 74 72 71 69 68 67 66 66 65 64
74 72 70 68 66 64 63 61 59 58 56 56 56 57 58 59 59 60 60 60 61 62 63 64 66 67 68 68 68 69 71 73 74 76 78 81 83 85 87 90 92 93 94 95 95 96 97 97 98 98 98 97 96 95 94 93 92 91 90 88 87 86 85 84 83 82 80 79 78 77 76 75 74 73 72 70 68 67 65 64 63 63 62 60 59
65 63 61 58 56 54 53 51 50 49 48 48 48 49 51 52 52 53 54 54 54 54 54 55 57 58 59 58 59 60 62 63 65 67 69 71 73 76 78 80 82 84 85 86 86 87 88 89 90 91 91 91 90 90 89 88 88 87 86 85 84 82 81 81 80 79 79 77 76 75 74 73 71 70 68 66 64 63 62 61 60 59 58 56 55
58 56 54 51 49 47 46 45 45 44 44 44 45 46 48 49 49 49 49 50 50 50 49 49 50 52 51 51 52 53 54 55 57 59 60 62 65 67 70 72 74 76 78 79 79 79 79 80 81 82 83 84 84 84 84 83 83 83 82 81 80 79 78 77 77 77 76 75 73 72 71 69 67 66 64 62 61 61 60 59 58 56 55 54 54
53 51 49 47 45 44 43 42 43 43 43 44 44 44 45 46 47 47 47 47 47 48 47 46 46 47 46 46 46 47 47 48 50 51 53 55 56 58 61 64 67 69 70 72 74 74 73 72 72 72 73 74 75 76 77 77 77 77 77 77 76 75 75 74 74 73 72 71 69 68 66 65 63 62 61 60 60 60 59 58 56 55 53 52 52
50 48 46 45 43 42 42 41 42 42 43 43 43 43 42 42 44 45 45 45 44 44 44 44 43 43 43 43 42 43 43 44 45 46 48 49 50 51 54 57 61 63 65 67 69 70 70 69 68 66 65 65 65 67 68 69 70 70 71 72 72 71 71 70 70 69 68 67 65 64 63 61 60 59 59 59 59 59 58 56 55 53 52 51 51
48 47 45 44 43 43 42 42 42 42 42 42 42 42 42 40 40 41 42 43 43 42 42 42 41 41 41 41 41 40 40 41 42 44 45 46 47 49 51 54 56 58 61 63 65 67 68 68 67 65 63 61 60 60 60 62 64 65 66 68 68 68 67 67 66 65 64 64 63 62 61 60 59 59 59 59 58 57 56 55 53 53 52 51 50
48 46 45 45 44 44 43 43 42 42 41 41 42 42 41 40 39 38 38 39 41 41 41 41 40 40 40 41 41 40 40 41 42 43 44 45 46 48 51 53 54 55 56 59 61 63 65 65 65 65 64 62 61 59 58 58 59 60 62 63 65 66 66 65 65 64 63 63 62 62 62 61 59 58 57 57 56 55 54 54 53 53 52 51 50
47 46 45 45 45 45 44 44 43 42 42 42 42 42 41 40 39 38 37 36 37 38 39 40 39 39 39 40 40 41 41 42 42 43 44 46 46 47 49 51 53 54 54 56 57 59 61 63 63 63 63 63 63 61 60 58 57 57 58 59 61 62 63 63 63 63 63 63 62 62 61 61 59 58 56 55 54 54 54 54 54 53 53 52 50
46 46 45 46 46 46 46 45 45 44 43 42 42 42 41 41 40 39 38 37 36 36 37 38 39 39 38 38 38 39 39 40 41 41 41 42 44 45 47 48 49 51 52 53 55 56 58 60 61 62 62 63 63 62 61 60 59 58 58 58 58 59 60 61 61 62 62 61 61 60 59 59 58 58 56 55 55 54 54 54 54 54 54 53 52
46 46 46 46 46 46 46 46 46 45 44 43 42 42 42 42 41 41 40 40 39 38 37 37 38 38 38 37 37 37 37 38 38 39 39 39 40 41 42 44 45 47 49 50 52 53 55 57 59 60 61 62 62 63 62 61 60 59 58 58 58 58 59 59 60 60 60 60 60 60 59 58 57 57 56 56 56 56 55 55 55 55 55 54 54
45 45 45 46 46 45 46 46 46 46 45 44 43 43 43 43 43 43 42 42 42 42 41 40 40 39 39 39 38 37 37 37 37 37 37 37 37 38 38 39 40 42 44 46 47 49 52 54 56 58 60 60 61 62 62 62 61 59 58 58 58 58 59 59 59 59 60 60 59 59 59 58 57 57 56 56 56 56 56 55 55 55 54 54 54
44 45 45 46 46 45 45 46 46 46 46 46 45 45 45 44 44 44 44 44 44 44 44 44 43 42 41 41 40 39 38 38 37 36 36 35 34 35 35 35 36 37 38 40 42 44 46 49 52 55 58 59 60 61 62 62 62 60 59 58 58 58 58 59 59 59 58 58 58 58 58 58 58 57 56 56 56 56 55 55 54 54 53 52 52
43 44 45 45 45 45 46 46 46 46 47 47 47 46 46 46 46 45 45 45 44 45 45 45 45 45 45 44 43 42 41 40 39 38 37 36 35 34 33 33 34 34 35 36 38 39 40 43 46 49 53 56 58 59 60 61 62 61 60 59 59 59 59 58 57 57 57 57 57 57 58 58 57 57 57 56 56 55 54 53 53 52 51 50 50
42 43 44 45 45 45 46 46 47 47 47 48 48 48 48 48 48 48 47 46 46 46 46 46 46 46 46 46 46 45 44 43 42 41 40 39 37 36 34 33 33 33 33 33 34 35 36 37 39 41 45 49 52 55 57 58 59 60 60 59 59 60 60 59 58 57 56 55 55 56 56 56 56 56 56 56 55 54 53 52 51 51 50 49 47
41 42 42 44 45 45 46 46 47 47 48 49 49 50 50 50 50 50 50 50 50 49 49 49 49 49 48 48 47 47 47 46 45 44 43 42 41 39 38 36 34 33 32 32 32 33 34 34 35 36 38 40 43 47 50 52 54 56 57 57 57 58 59 60 59 57 56 55 55 54 55 55 55 55 55 54 54 52 51 50 50 50 49 48 47
42 42 42 43 44 44 45 46 47 48 49 50 50 51 51 51 52 52 52 53 53 53 53 53 53 53 52 51 50 49 48 48 47 47 46 45 44 43 42 40 38 35 34 33 33 33 33 33 33 33 34 36 37 40 42 45 47 49 51 53 54 55 56 58 59 58 56 55 55 55 54 54 54 54 54 54 53 52 50 49 49 49 48 47 47
42 42 42 42 43 44 44 45 46 47 48 49 50 51 52 52 53 53 53 53 54 54 54 55 55 55 56 55 55 53 52 50 49 48 48 47 46 46 45 45 43 40 37 35 35 36 36 35 34 33 33 33 34 35 37 39 41 43 45 47 49 51 52 54 56 57 56 55 54 54 55 55 55 54 54 54 53 53 52 51 50 49 48 48 47
41 41 41 42 42 43 44 44 45 45 46 46 47 48 49 50 50 51 51 51 52 52 53 53 53 54 54 55 56 56 55 54 53 51 50 48 47 47 46 46 46 45 42 40 37 37 37 37 37 36 35 35 34 34 34 36 38 39 41 43 45 47 49 51 52 54 55 54 54 54 54 55 56 56 55 54 54 54 54 53 52 51 49 48 48
41 41 41 41 41 42 42 43 43 44 44 45 45 45 46 46 46 46 47 47 47 47 47 47 48 48 49 50 51 53 54 55 55 55 54 52 50 48 47 46 46 46 45 44 42 40 38 37 37 37 37 37 37 37 37 37 38 39 40 41 43 44 46 48 49 51 53 53 53 53 53 54 55 56 56 56 55 54 54 54 53 52 51 50 49
42 42 41 41 41 41 41 41 41 42 42 43 43 44 44 45 45 44 44 44 43 43 43 43 44 44 44 44 45 46 47 49 51 53 54 55 54 52 50 48 46 46 45 45 45 44 43 41 40 39 39 39 39 40 40 40 40 40 41 41 42 43 44 46 47 49 50 51 52 52 52 53 53 54 55 55 56 55 54 54 54 53 53 53 52
44 44 43 42 42 41 41 41 41 41 41 41 41 42 43 43 44 44 44 43 43 43 42 42 42 42 42 41 41 42 42 43 45 46 48 51 53 54 54 52 49 47 45 45 44 44 45 45 44 43 42 41 41 41 41 41 41 41 41 41 41 42 43 44 45 46 47 48 49 50 50 50 51 51 52 52 53 54 54 54 54 54 54 55 55
45 45 44 44 44 43 42 41 41 41 40 40 40 40 41 41 41 42 42 43 43 42 42 41 41 41 40 40 39 39 40 40 41 42 43 44 46 49 52 54 53 50 48 45 44 43 43 44 44 44 44 43 42 41 41 40 40 40 40 40 40 41 41 42 43 44 45 45 46 46 47 48 48 49 49 49 50 51 52 52 53 53 54 55 56
45 45 45 45 44 44 44 43 42 42 41 40 40 40 40 40 40 40 40 41 41 41 41 40 40 40 39 39 39 38 38 38 39 39 40 41 42 43 45 48 51 52 51 48 45 43 42 42 42 43 43 42 42 41 41 40 39 39 39 38 38 39 39 40 41 42 43 43 44 44 44 45 45 46 46 47 47 47 48 49 49 50 52 53 55
47 46 46 45 45 45 44 44 43 43 42 41 41 40 40 40 39 39 39 39 39 39 39 39 39 38 38 38 38 38 37 37 37 38 38 39 39 39 40 42 45 48 50 50 48 45 43 41 41 41 41 41 40 40 40 39 39 38 38 37 37 37 38 38 39 40 41 42 42 42 43 43 43 43 44 44 44 45 45 45 46 47 48 48 49
48 48 47 47 46 46 45 44 44 43 43 42 42 41 40 40 39 39 38 38 38 38 38 38 38 38 37 37 37 37 37 36 36 36 37 37 36 36 37 37 39 41 44 46 47 46 44 42 41 40 39 39 38 38 37 37 37 37 36 36 36 36 36 36 37 39 40 40 41 42 42 42 42 42 42 42 42 42 42 42 43 43 43 44 43
Wind_Direction
266 266 266 266 265 265 265 264 264 263 263 262 261 261 261 261 260 260 260 260 260 260 260 261 261 262 262 263 263 264 264 264 264 264 264 264 264 264 264 265 265 265 265 266 266 266 267 267 267 268 268 269 269 269 269 270 270 270 270 271 271 272 272 272 271 270 270 272 273 274 275 277 277 278 279 279 279 279 279 279 279 278 277 276 276
266 265 266 266 266 265 265 265 265 265 264 264 263 262 262 262 261 261 262 262 261 261 261 261 261 261 261 262 263 263 264 264 264 264 264 264 264 264 264 264 265 265 265 266 266 266 266 267 267 267 268 268 269 269 269 270 270 270 270 271 271 272 272 272 273 272 271 272 274 274 275 276 277 278 279 279 279 279 279 278 278 278 277 277 276
265 265 264 264 264 264 265 265 265 265 265 264 264 264 263 263 262 262 262 262 262 262 262 262 262 262 261 262 262 262 263 263 264 264 264 264 264 264 264 264 264 265 265 265 266 266 266 266 267 267 267 267 268 268 268 269 269 270 270 271 271 271 272 272 273 273 273 273 274 275 275 276 277 278 278 278 278 278 278 278 278 277 277 277 277
264 264 264 264 264 263 263 263 264 264 264 264 264 264 264 264 264 264 263 263 262 262 262 262 262 262 262 262 262 262 262 262 263 263 263 263 263 263 263 263 263 263 264 264 265 265 265 266 266 266 266 267 267 267 267 268 268 269 269 270 270 271 271 272 272 273 273 273 274 274 275 275 276 277 277 277 277 277 277 277 276 276 276 276 276
263 263 263 263 263 263 263 263 263 263 263 263 263 263 263 264 264 264 264 264 264 263 263 263 263 262 262 262 262 262 263 263 263 263 263 263 263 263 263 263 263 263 263 263 263 263 264 264 265 265 266 266 266 267 267 267 268 268 269 269 269 270 270 270 271 271 272 273 273 273 274 274 274 275 276 276 276 276 276 275 275 275 274 274 274
264 264 263 263 263 263 263 264 263 263 263 263 263 263 263 263 263 263 263 264 264 264 264 264 263 263 263 263 263 263 263 263 263 263 264 263 263 263 263 263 263 263 262 262 262 263 263 263 263 264 264 265 265 266 266 267 267 268 268 268 269 269 269 269 270 270 271 272 272 272 272 273 273 274 274 275 275 275 275 275 274 274 274 274 274
267 267 266 265 264 264 264 264 264 264 264 264 264 264 264 263 263 263 263 263 263 263 264 264 264 264 264 264 264 264 264 264 264 264 264 264 265 265 264 264 264 263 263 263 262 262 262 263 263 263 264 264 265 265 266 266 267 267 268 268 268 269 269 269 270 270 271 271 271 271 271 272 272 273 273 274 274 275 275 274 274 274 274 274 274
271 270 269 268 267 267 266 266 266 265 265 265 265 265 265 264 264 264 264 263 263 263 263 264 264 264 264 264 264 264 264 264 264 265 265 265 265 265 266 266 266 266 266 265 265 264 264 263 263 262 263 263 264 264 265 266 266 267 267 268 268 268 269 269 270 270 271 271 271 271 271 271 272 272 272 273 273 274 274 274 274 273 273 273 273
273 273 273 272 272 271 270 269 268 268 267 266 266 266 265 265 265 265 265 264 264 264 263 263 263 263 264 264 264 264 264 265 265 265 265 265 265 265 265 266 266 267 267 267 267 267 267 267 266 265 264 264 264 264 264 265 265 266 266 267 268 268 269 269 270 270 271 271 271 271 272 272 272 272 272 273 273 273 273 273 273 273 273 273 273
274 274 274 274 274 274 273 272 271 271 270 269 268 268 267 267 267 267 267 266 266 265 264 264 264 264 264 264 264 264 264 265 265 265 265 265 265 265 265 266 266 266 266 266 266 267 267 267 268 269 269 268 268 267 267 266 266 266 266 267 267 268 268 269 269 269 270 270 271 271 272 272 272 272 273 273 273 273 273 273 273 273 273 273 273
273 273 273 273 273 273 273 273 273 272 272 271 271 270 270 269 268 268 268 267 267 267 267 266 265 265 264 264 264 264 264 264 265 265 265 265 265 265 265 266 266 266 266 266 266 265 265 265 265 266 267 268 269 269 269 269 269 269 269 269 269 270 270 270 270 270 271 271 271 271 272 272 273 273 274 274 274 274 274 274 274 275 275 275 275
271 271 271 272 272 271 272 272 272 272 272 272 271 271 271 270 270 269 269 268 268 268 268 268 267 267 266 265 265 265 265 265 265 265 265 265 265 265 265 265 265 266 266 266 266 266 266 265 265 264 263 263 264 265 265 266 267 268 268 269 270 271 272 273 273 273 273 273 273 273 274 274 274 274 274 274 273 273 274 274 275 276 276 276 276
271 271 271 271 271 271 271 270 270 271 271 271 271 271 271 270 270 269 269 269 269 268 268 268 268 268 268 267 267 266 266 266 266 266 266 266 266 266 265 265 265 265 265 266 266 266 266 266 266 266 264 263 262 262 262 263 264 265 265 266 267 268 269 270 270 271 271 272 273 273 274 274 274 274 274 274 274 274 275 276 276 276 276 276 276
272 272 272 271 271 271 270 270 270 269 269 269 269 269 269 269 269 269 269 268 268 268 268 268 267 267 267 267 267 267 267 267 267 267 267 267 267 267 267 266 266 266 266 266 266 266 266 267 267 267 266 266 265 264 264 263 263 263 263 264 264 265 266 267 267 268 268 269 269 270 270 270 271 271 272 272 273 273 274 274 275 275 276 276 276
274 274 273 273 272 272 271 271 271 270 270 269 269 269 269 268 268 268 268 268 268 268 268 268 267 267 267 267 267 267 267 267 267 267 267 267 267 267 267 267 267 267 267 267 267 267 267 267 267 267 267 267 267 266 266 266 265 265 265 264 264 264 264 265 265 266 267 269 269 269 268 268 268 269 269 269 270 271 271 271 271 271 272 272 272
275 275 275 274 274 273 273 272 272 271 271 270 270 269 269 269 268 268 268 268 268 268 268 267 267 267 267 267 267 267 266 266 267 267 267 267 267 267 267 267 267 267 267 268 268 268 268 268 268 268 268 268 268 268 268 268 268 268 267 267 267 266 266 266 266 266 267 268 268 268 268 268 269 269 269 270 271 272 273 273 272 273 273 272 271
276 275 275 275 274 274 274 273 272 272 271 271 270 270 269 269 268 268 268 267 267 267 267 267 267 267 267 267 267 267 267 266 266 266 266 266 266 266 266 266 266 267 267 267 267 267 268 268 268 268 269 269 269 269 269 269 269 269 269 269 268 268 268 268 268 268 269 269 269 269 269 270 271 271 272 273 274 275 276 276 276 277 277 277 276
277 277 276 276 276 275 275 274 273 273 272 271 270 269 269 268 268 267 267 266 266 266 266 266 266 266 266 266 266 267 267 266 266 266 266 266 266 266 266 266 266 266 266 266 266 266 267 267 267 268 268 268 269 269 269 270 270 270 270 270 270 269 269 270 270 270 271 271 271 271 271 272 273 274 275 277 278 279 280 281 281 281 282 282 281
279 278 278 278 277 277 276 275 275 274 273 272 271 270 269 268 268 267 266 266 265 265 265 265 265 265 265 265 265 265 265 265 266 266 266 266 266 266 265 265 265 265 265 266 266 266 266 267 267 267 267 267 268 268 269 269 269 270 270 270 270 270 270 270 270 271 272 272 273 273 273 274 275 276 278 279 281 283 284 284 284 284 285 285 285
281 280 280 279 279 278 278 277 276 275 275 274 273 272 271 270 269 268 267 266 265 265 264 264 264 263 263 263 263 263 263 263 263 264 264 265 265 266 266 266 265 265 265 265 265 265 266 266 266 266 267 267 267 267 268 269 269 270 270 270 270 270 270 271 271 271 272 272 273 273 274 275 276 277 278 279 281 282 283 284 284 284 285 285 285
282 282 281 281 280 280 279 279 278 277 277 276 275 274 274 273 272 271 270 269 268 267 266 265 264 263 262 262 262 262 262 262 262 262 262 262 263 264 264 265 265 265 265 265 265 264 264 265 265 265 265 266 266 267 267 268 269 269 270 270 271 271 271 271 272 272 272 272 273 273 274 275 275 276 277 278 278 279 280 281 282 283 283 284 284
284 283 283 282 282 281 281 280 280 279 279 278 277 277 276 275 275 274 273 272 271 270 268 267 266 265 264 263 262 262 261 261 261 261 261 261 261 261 262 263 263 264 264 265 265 265 264 264 264 264 264 265 265 266 266 266 267 268 269 269 270 270 271 271 272 273 273 274 274 275 275 275 276 276 277 277 278 278 278 279 280 281 282 282 283
285 285 284 284 283 283 282 282 281 281 280 280 279 278 278 277 276 276 275 274 273 272 271 270 269 267 266 264 263 262 262 261 261 261 260 260 260 260 261 261 261 262 262 263 263 264 264 264 264 264 264 265 265 265 266 266 266 267 268 268 269 270 270 271 272 273 273 274 275 276 276 277 277 278 278 278 278 278 278 279 279 280 280 281 282
287 286 286 285 285 284 284 283 283 282 282 281 280 280 279 278 278 277 276 276 275 274 273 272 271 269 268 266 265 264 263 261 260 260 259 259 259 259 259 259 259 260 260 260 261 261 262 263 263 264 264 264 265 265 265 266 266 266 267 268 269 269 270 271 271 272 273 274 275 275 276 277 277 277 278 278 278 278 278 279 279 280 280 281 281
288 288 287 287 286 285 285 284 284 283 283 282 281 281 280 279 278 278 277 277 276 275 274 274 272 271 270 268 267 265 264 262 261 260 259 258 258 258 258 258 258 258 258 258 258 258 259 259 260 261 262 263 263 264 264 265 265 266 266 267 267 268 269 270 271 272 272 273 274 274 275 276 276 277 278 278 279 279 279 279 280 280 280 280 280
289 289 288 288 287 287 286 286 285 285 284 283 283 282 281 280 279 279 278 278 277 276 275 275 274 273 272 270 269 267 265 263 261 260 259 258 257 257 256 256 256 256 256 256 256 256 256 256 257 258 259 259 260 261 262 262 263 264 265 265 266 267 268 268 269 270 271 271 272 273 274 275 275 277 277 278 279 279 279 279 279 279 279 279 279
291 290 290 289 288 288 287 287 286 286 286 286 286 285 285 284 284 283 282 281 280 279 278 276 275 274 273 271 270 268 266 264 262 260 259 257 256 256 255 255 255 255 255 255 255 254 254 254 255 255 256 256 257 258 259 260 261 262 262 263 264 265 265 266 267 268 269 270 270 271 272 273 274 275 276 277 277 277 277 277 277 277 277 277 278
292 291 290 289 289 288 288 287 287 287 287 287 288 288 289 289 288 288 287 286 284 282 281 279 278 276 275 273 271 268 266 265 263 261 259 257 256 255 254 254 254 254 254 254 255 255 254 254 254 254 255 255 255 256 257 258 258 259 260 261 261 262 263 263 264 265 266 267 268 269 270 271 272 273 274 274 274 274 274 274 274 274 274 275 277
293 291 290 289 287 287 287 287 287 287 287 288 289 290 291 291 290 290 290 290 289 287 284 282 280 279 277 275 272 270 268 266 265 263 261 259 257 256 255 254 254 254 254 254 254 254 255 255 255 255 255 255 255 255 255 256 257 257 258 259 259 260 260 261 262 262 263 264 265 266 267 268 269 270 271 271 270 270 271 271 271 271 272 274 276
292 290 289 287 286 285 285 285 286 286 287 288 289 290 291 292 292 292 291 291 291 290 289 286 284 282 280 277 275 273 271 269 267 265 264 262 261 259 258 256 255 254 254 254 254 253 254 255 256 256 256 256 256 256 255 256 256 257 257 257 258 258 258 259 259 260 261 262 263 264 265 266 266 267 267 266 267 267 268 268 268 269 271 273 276
290 289 287 286 284 283 283 283 284 285 287 288 289 289 289 290 291 292 292 292 292 292 292 291 289 287 284 281 278 276 275 272 270 268 265 263 262 262 261 259 258 255 254 253 253 253 252 253 253 254 256 257 257 257 256 256 255 256 256 256 256 256 257 257 257 258 259 260 261 262 262 263 263 263 263 263 264 264 265 266 267 269 271 273 276
289 287 286 284 283 281 281 281 283 284 286 287 288 288 288 288 288 289 291 292 293 292 292 292 292 291 289 286 282 279 277 275 273 271 269 266 263 261 261 261 260 258 256 255 253 253 252 252 251 251 252 254 256 256 256 255 254 253 253 254 254 255 255 255 256 256 257 258 258 259 259 259 259 260 260 261 261 262 263 265 267 269 271 273 274
287 286 285 284 282 281 280 281 282 284 284 285 286 286 286 286 285 285 285 288 291 293 293 292 292 292 291 289 287 283 280 277 275 274 272 270 267 264 263 263 262 261 259 257 255 254 253 253 252 251 250 251 252 255 255 255 254 253 253 252 253 253 254 254 254 255 255 256 256 256 256 256 256 257 258 259 260 261 263 265 266 268 270 271 272
286 285 284 284 283 281 280 280 281 282 282 283 283 283 283 282 282 281 280 281 284 288 292 293 292 292 292 291 289 287 284 281 279 277 276 274 272 270 267 266 265 263 261 259 257 255 253 252 252 251 250 250 250 252 254 255 255 254 253 253 253 253 253 253 253 254 254 254 254 254 255 255 255 256 258 259 260 262 263 264 266 267 269 270 270
285 284 283 283 283 282 281 281 280 280 280 280 281 281 281 279 279 279 280 279 278 280 284 288 290 290 290 290 290 289 287 285 283 281 280 278 277 275 272 270 269 267 265 262 259 257 255 253 251 251 250 250 250 250 252 253 254 253 253 253 253 253 253 253 253 253 254 254 254 254 255 255 256 257 258 260 262 263 264 264 265 266 268 268 268
286 284 283 282 282 282 282 281 281 280 279 280 280 280 280 279 278 277 278 279 279 278 279 281 284 286 287 287 287 287 287 286 284 283 282 280 279 277 276 274 272 271 269 267 264 261 257 255 253 251 251 250 250 250 251 252 253 253 253 253 253 253 254 254 254 254 254 254 254 255 255 256 257 258 259 260 262 263 264 265 266 266 267 268 268
288 286 284 283 282 283 283 283 283 282 281 281 280 280 280 279 278 278 277 278 279 279 279 279 280 281 283 284 285 286 286 285 285 284 283 282 280 278 276 274 273 272 271 270 268 265 262 258 255 253 252 251 251 250 251 252 253 253 254 254 254 254 255 255 255 254 254 254 254 254 255 255 256 257 258 260 261 263 264 265 266 267 268 269 269
291 289 287 285 284 283 282 283 283 283 283 283 282 281 281 280 279 279 279 279 279 279 278 278 277 277 278 279 281 283 284 284 284 284 284 283 282 280 277 274 272 271 270 270 269 268 266 263 259 256 253 252 252 251 251 252 253 254 254 254 254 255 255 256 256 256 256 255 254 254 254 255 255 256 258 259 261 262 263 264 265 266 268 269 270
293 290 288 287 285 284 283 282 282 282 282 282 282 281 281 280 280 280 280 280 280 280 279 278 277 276 275 275 276 277 279 281 282 282 283 283 282 281 279 277 274 272 271 270 269 268 267 266 264 261 258 255 254 253 252 252 252 253 254 254 255 255 256 257 258 258 258 258 257 256 255 255 255 256 257 258 260 261 262 263 264 265 266 268 269
295 292 290 288 286 285 284 283 282 281 281 281 280 280 280 280 279 279 279 279 279 279 279 279 279 278 276 274 273 273 274 276 277 279 280 280 281 280 280 278 276 274 272 270 269 268 266 265 264 262 261 259 258 256 255 254 254 254 254 254 254 254 255 257 258 259 259 259 258 257 256 255 255 255 256 257 258 259 260 261 262 263 264 265 266
299 296 293 290 288 287 285 284 283 283 282 281 281 280 280 279 279 279 278 278 278 278 278 278 279 278 278 276 275 273 272 272 273 274 275 276 277 278 278 277 276 275 273 271 269 268 267 265 263 261 260 259 259 258 258 257 257 256 256 256 255 255 255 256 258 259 259 258 258 258 257 256 256 256 256 256 256 256 257 258 259 261 262 263 264
302 299 297 294 292 290 288 286 285 284 283 282 282 281 281 280 280 279 279 278 278 277 277 277 277 278 277 277 276 274 273 271 270 270 271 271 273 274 275 275 274 273 271 270 269 268 268 267 266 264 261 259 258 257 257 257 257 258 258 257 257 257 256 255 257 259 260 259 258 258 257 257 257 257 257 257 256 255 256 257 258 260 261 263 264
304 302 300 298 296 294 292 290 289 287 286 284 284 283 282 282 281 281 280 280 279 278 278 277 277 277 276 276 275 274 273 272 271 270 269 269 269 270 271 272 272 271 269 268 267 267 267 267 266 266 264 262 259 257 256 256 255 256 256 257 257 257 257 256 256 258 259 260 259 258 258 258 257 258 258 258 257 256 256 257 259 261 263 264 265
308 306 304 302 299 297 296 294 293 291 290 288 287 286 285 284 284 283 282 282 281 280 280 279 278 277 277 276 275 273 272 271 270 270 269 268 268 267 267 268 269 269 269 267 265 264 264 263 263 263 262 262 260 259 257 256 255 255 254 254 255 255 256 256 256 257 258 260 260 260 259 259 258 258 259 259 259 258 257 259 261 263 265 266 267
309 308 307 305 304 302 300 298 296 295 293 292 290 289 288 287 286 286 285 284 283 283 282 282 281 280 279 278 276 275 273 271 270 268 267 267 267 266 266 265 266 266 267 266 266 264 263 262 261 260 260 259 259 259 259 259 259 258 256 255 254 254 254 255 256 256 257 258 259 260 260 260 260 259 259 260 260 260 260 261 262 264 266 267 269
307 307 307 306 306 305 304 303 301 300 298 296 294 292 290 289 288 287 287 286 285 284 284 283 283 282 281 280 279 278 277 275 273 270 268 266 265 264 264 264 264 264 264 264 264 264 264 263 263 262 260 260 260 260 261 262 262 262 260 259 257 256 255 255 255 255 256 256 257 258 259 259 260 260 260 260 261 262 263 263 264 265 266 268 270
306 306 305 305 305 305 305 304 303 302 301 300 298 296 294 292 290 289 288 286 286 285 284 284 284 283 283 282 281 280 279 279 277 275 272 269 265 263 262 261 261 261 262 262 262 263 263 263 263 263 263 263 263 263 263 263 263 262 262 261 259 258 257 256 255 255 255 255 256 257 258 258 259 260 260 261 261 262 263 264 265 265 266 268 270
306 305 304 303 303 303 303 303 303 302 302 301 301 300 298 296 294 292 289 287 286 285 284 284 283 283 282 282 281 281 281 280 280 278 277 274 270 266 263 260 259 259 259 260 260 261 262 263 263 263 264 265 265 265 264 263 263 262 261 260 259 258 257 256 255 255 255 255 255 256 256 257 258 259 259 260 261 261 262 263 264 265 266 267 268
306 305 304 303 303 302 301 301 300 300 301 301 301 300 300 299 298 296 293 291 288 286 284 283 283 282 282 281 281 281 281 282 281 281 279 277 275 272 267 263 259 257 256 257 258 260 261 262 263 263 263 264 264 264 264 263 263 262 262 261 259 258 256 255 254 253 253 253 253 254 254 255 256 256 257 258 259 260 260 261 262 263 264 265 265
305 304 304 303 303 302 301 300 299 298 298 299 299 299 299 299 299 298 297 295 292 289 286 284 283 282 282 281 281 281 282 282 283 283 282 280 278 275 272 267 262 257 255 255 255 257 259 261 262 263 263 263 263 263 263 263 263 263 263 262 261 259 257 255 253 252 251 251 251 251 251 252 253 253 254 255 256 256 257 258 259 260 260 261 262
303 302 302 302 301 301 300 300 299 298 297 296 296 296 297 298 298 298 298 297 296 293 290 286 284 282 281 281 280 280 281 282 283 284 283 282 280 278 275 271 266 260 256 253 253 254 257 259 261 263 264 264 264 263 263 263 263 263 263 263 262 260 258 256 254 252 250 249 248 248 249 249 249 250 251 251 251 251 252 253 254 254 255 256 257
Height
5671 5670 5670 5670 5669 5669 5669 5669 5669 5669 5669 5669 5669 5668 5668 5668 5668 5668 5667 5667 5667 5667 5667 5667 5667 5667 5666 5666 5666 5666 5667 5667 5667 5668 5669 5669 5670 5670 5670 5670 5670 5671 5670 5670 5670 5669 5669 5670 5670 5669 5668 5667 5667 5667 5667 5666 5665 5665 5665 5665 5665 5665 5663 5662 5664 5670 5673 5671 5672 5672 5669 5668 5670 5669 5666 5667 5666 5663 5664 5664 5664 5663 5663 5663 5663
5662 5662 5661 5661 5660 5660 5659 5659 5659 5659 5658 5658 5658 5658 5658 5658 5658 5658 5657 5657 5657 5657 5657 5656 5656 5656 5656 5656 5655 5655 5655 5655 5656 5656 5657 5657 5658 5659 5659 5659 5660 5660 5660 5659 5659 5658 5658 5659 5658 5658 5656 5656 5656 5655 5656 5655 5653 5654 5654 5653 5654 5654 5652 5651 5651 5656 5662 5662 5659 5661 5661 5657 5659 5659 5655 5655 5655 5653 5652 5654 5653 5652 5652 5652 5652
5653 5652 5652 5651 5651 5650 5650 5649 5649 5649 5648 5648 5648 5647 5647 5647 5647 5647 5647 5646 5646 5646 5646 5646 5646 5646 5645 5645 5645 5645 5644 5644 5644 5644 5645 5645 5646 5646 5647 5647 5648 5648 5648 5648 5648 5647 5647 5647 5647 5646 5645 5644 5644 5644 5644 5643 5642 5642 5642 5641 5642 5643 5641 5639 5639 5641 5647 5651 5649 5649 5650 5648 5647 5647 5644 5643 5645 5643 5642 5643 5642 5642 5641 5640 5641
5643 5642 5642 5641 5641 5641 5640 5640 5639 5638 5638 5638 5637 5636 5636 5636 5635 5635 5635 5635 5635 5634 5634 5634 5634 5634 5634 5634 5633 5633 5633 5633 5633 5632 5632 5633 5634 5634 5635 5635 5635 5636 5636 5636 5636 5635 5635 5635 5635 5634 5633 5633 5633 5632 5632 5631 5630 5630 5631 5631 5630 5631 5630 5628 5628 5628 5631 5637 5639 5637 5637 5638 5638 5635 5633 5631 5632 5632 5632 5632 5631 5631 5631 5630 5630
5633 5632 5631 5631 5630 5630 5629 5629 5628 5628 5627 5627 5626 5625 5625 5624 5624 5623 5623 5623 5622 5622 5622 5621 5621 5621 5622 5621 5621 5621 5620 5620 5620 5620 5620 5620 5621 5622 5622 5622 5623 5623 5624 5624 5623 5623 5622 5623 5623 5621 5621 5621 5621 5621 5620 5620 5619 5619 5619 5620 5619 5618 5619 5617 5616 5616 5616 5620 5627 5627 5625 5626 5627 5625 5622 5619 5620 5621 5620 5620 5620 5619 5620 5620 5620
5621 5621 5620 5620 5619 5619 5618 5617 5617 5616 5616 5615 5615 5614 5614 5613 5612 5612 5611 5611 5610 5610 5609 5609 5609 5609 5609 5608 5609 5609 5608 5607 5607 5606 5606 5606 5607 5608 5609 5609 5610 5610 5611 5611 5611 5610 5610 5610 5610 5609 5608 5609 5609 5609 5608 5608 5608 5608 5607 5607 5607 5606 5606 5606 5605 5605 5604 5606 5610 5614 5614 5613 5614 5614 5612 5607 5608 5610 5609 5607 5608 5608 5607 5608 5609
5610 5610 5609 5608 5608 5607 5606 5606 5605 5605 5604 5603 5603 5602 5602 5601 5601 5600 5599 5599 5599 5598 5597 5597 5596 5596 5596 5595 5595 5595 5595 5595 5594 5593 5593 5593 5593 5593 5594 5595 5596 5596 5597 5597 5598 5598 5598 5597 5597 5597 5596 5596 5596 5596 5596 5596 5595 5596 5595 5595 5594 5593 5593 5594 5594 5592 5593 5593 5595 5600 5602 5602 5601 5602 5601 5597 5596 5598 5596 5593 5596 5598 5595 5595 5598
5599 5598 5597 5597 5596 5596 5595 5594 5593 5593 5592 5591 5591 5590 5589 5589 5588 5588 5587 5586 5586 5586 5585 5585 5584 5583 5583 5582 5582 5582 5582 5582 5580 5579 5579 5579 5579 5579 5580 5580 5580 5581 5581 5582 5582 5583 5584 5584 5584 5584 5584 5583 5584 5584 5584 5584 5583 5583 5584 5582 5581 5581 5581 5581 5581 5580 5580 5580 5582 5585 5587 5589 5589 5589 5588 5586 5584 5585 5583 5580 5581 5585 5583 5581 5586
5588 5586 5585 5584 5583 5583 5583 5582 5581 5580 5579 5579 5578 5577 5577 5576 5575 5575 5574 5573 5573 5573 5573 5572 5572 5571 5571 5570 5569 5569 5569 5568 5567 5566 5566 5566 5566 5566 5567 5567 5567 5567 5567 5567 5567 5567 5568 5568 5569 5569 5570 5570 5571 5571 5571 5571 5570 5571 5572 5570 5568 5569 5569 5569 5569 5568 5567 5567 5569 5571 5572 5574 5577 5577 5574 5574 5572 5570 5570 5568 5567 5570 5571 5569 5574
5576 5575 5573 5572 5571 5570 5569 5568 5568 5567 5566 5566 5565 5564 5563 5563 5563 5562 5561 5560 5559 5559 5559 5559 5558 5558 5558 5558 5557 5556 5556 5555 5554 5553 5553 5552 5553 5553 5553 5554 5554 5554 5554 5554 5555 5555 5554 5555 5555 5555 5555 5556 5557 5557 5557 5557 5557 5557 5559 5558 5556 5556 5556 5556 5556 5556 5555 5554 5556 5559 5558 5560 5564 5564 5561 5561 5560 5556 5556 5556 5554 5556 5557 5556 5561
5565 5563 5561 5560 5559 5557 5556 5555 5554 5553 5552 5552 5551 5551 5550 5549 5549 5548 5548 5546 5546 5545 5545 5544 5544 5543 5544 5544 5544 5544 5543 5543 5541 5541 5539 5538 5539 5539 5540 5540 5540 5540 5541 5541 5542 5542 5542 5543 5543 5543 5543 5544 5544 5543 5543 5543 5543 5544 5544 5544 5544 5544 5544 5544 5544 5544 5543 5542 5544 5546 5546 5547 5551 5551 5549 5549 5547 5543 5543 5544 5542 5543 5544 5543 5547
5553 5551 5550 5548 5546 5545 5543 5542 5541 5539 5538 5537 5536 5536 5535 5534 5534 5534 5533 5532 5532 5531 5530 5529 5529 5528 5528 5529 5530 5530 5530 5529 5527 5527 5526 5525 5524 5525 5526 5527 5527 5527 5527 5527 5528 5529 5529 5529 5530 5530 5532 5532 5532 5532 5531 5532 5532 5532 5532 5532 5531 5531 5532 5531 5531 5532 5531 5530 5531 5533 5534 5535 5536 5538 5539 5536 5533 5532 5532 5532 5531 5531 5532 5532 5534
5541 5539 5538 5536 5534 5532 5531 5530 5529 5528 5526 5524 5523 5521 5520 5519 5519 5518 5518 5517 5516 5516 5516 5515 5514 5514 5513 5513 5514 5514 5515 5515 5513 5512 5512 5511 5510 5510 5511 5512 5512 5513 5513 5513 5514 5514 5515 5515 5516 5517 5518 5519 5519 5519 5519 5519 5519 5519 5520 5520 5520 5520 5520 5520 5520 5520 5520 5519 5519 5521 5524 5523 5521 5525 5528 5524 5519 5520 5520 5520 5520 5519 5519 5521 5522
5528 5527 5525 5523 5520 5518 5518 5517 5516 5515 5513 5511 5510 5508 5506 5505 5504 5503 5502 5502 5501 5500 5500 5500 5499 5499 5498 5497 5498 5499 5499 5499 5498 5496 5496 5495 5495 5494 5495 5496 5497 5498 5498 5498 5499 5500 5500 5501 5501 5502 5504 5505 5505 5505 5505 5506 5506 5507 5507 5508 5508 5508 5508 5508 5509 5508 5508 5508 5507 5510 5514 5513 5509 5512 5517 5513 5507 5507 5508 5508 5508 5508 5507 5508 5509
5515 5512 5510 5508 5506 5504 5503 5503 5502 5501 5499 5498 5496 5495 5493 5491 5490 5489 5488 5487 5487 5486 5485 5484 5484 5484 5483 5482 5482 5483 5484 5482 5481 5481 5480 5479 5478 5478 5479 5480 5481 5482 5483 5483 5483 5484 5485 5486 5486 5488 5489 5490 5490 5490 5491 5492 5492 5493 5494 5495 5495 5496 5495 5496 5496 5496 5496 5496 5494 5497 5502 5502 5499 5500 5504 5502 5497 5495 5495 5495 5497 5498 5496 5495 5498
5501 5498 5495 5493 5491 5488 5487 5487 5487 5485 5484 5483 5481 5480 5478 5477 5475 5474 5473 5472 5471 5470 5469 5469 5469 5469 5468 5467 5466 5467 5469 5468 5466 5465 5464 5463 5462 5462 5463 5464 5465 5466 5468 5468 5468 5469 5469 5470 5471 5473 5474 5475 5476 5476 5476 5477 5478 5479 5481 5482 5483 5483 5483 5483 5484 5484 5485 5483 5483 5485 5488 5489 5488 5487 5489 5489 5486 5483 5481 5481 5486 5487 5482 5481 5486
5485 5483 5480 5478 5475 5472 5471 5470 5470 5469 5467 5466 5465 5463 5462 5460 5459 5458 5456 5456 5456 5455 5453 5453 5453 5453 5452 5452 5450 5450 5452 5453 5451 5449 5449 5447 5446 5446 5447 5448 5449 5451 5452 5453 5453 5454 5454 5455 5456 5457 5459 5460 5460 5461 5461 5462 5464 5465 5467 5468 5470 5471 5471 5471 5471 5472 5472 5471 5471 5474 5474 5475 5475 5474 5474 5475 5473 5469 5465 5467 5473 5473 5466 5466 5472
5469 5466 5463 5461 5458 5456 5454 5452 5451 5450 5449 5448 5447 5446 5444 5443 5442 5440 5439 5438 5439 5439 5437 5436 5437 5437 5436 5435 5435 5434 5435 5437 5435 5433 5432 5431 5429 5430 5431 5433 5434 5435 5436 5437 5438 5439 5440 5441 5441 5442 5443 5444 5445 5445 5446 5446 5448 5450 5452 5453 5456 5458 5459 5457 5457 5459 5459 5459 5460 5461 5462 5462 5462 5461 5461 5461 5460 5456 5452 5453 5457 5456 5452 5452 5456
5451 5449 5446 5443 5440 5437 5435 5433 5432 5431 5430 5429 5427 5426 5425 5424 5423 5422 5420 5420 5420 5421 5420 5418 5419 5420 5419 5418 5418 5418 5419 5421 5420 5416 5415 5415 5413 5412 5414 5417 5419 5419 5420 5421 5423 5424 5425 5426 5427 5427 5428 5429 5430 5431 5431 5431 5432 5434 5436 5438 5441 5445 5445 5442 5443 5446 5447 5447 5448 5449 5449 5450 5449 5449 5449 5449 5447 5444 5440 5439 5441 5440 5438 5438 5440
5434 5431 5427 5425 5422 5419 5416 5414 5412 5410 5409 5408 5407 5405 5404 5403 5402 5401 5400 5400 5400 5401 5401 5400 5400 5401 5401 5400 5400 5401 5402 5403 5403 5401 5399 5399 5398 5396 5396 5399 5401 5403 5404 5406 5408 5410 5410 5410 5411 5412 5412 5413 5415 5416 5417 5417 5417 5419 5421 5422 5426 5430 5429 5427 5429 5433 5433 5434 5436 5436 5437 5438 5437 5437 5438 5438 5436 5433 5429 5427 5427 5427 5425 5424 5426
5417 5413 5410 5407 5403 5400 5397 5394 5392 5390 5387 5386 5386 5384 5381 5380 5380 5379 5378 5378 5379 5380 5380 5380 5380 5381 5382 5382 5382 5383 5383 5384 5384 5384 5383 5382 5382 5381 5380 5382 5383 5385 5387 5390 5392 5394 5395 5396 5396 5397 5397 5398 5400 5403 5404 5404 5403 5404 5406 5408 5411 5413 5414 5413 5415 5418 5418 5420 5422 5422 5423 5424 5424 5424 5425 5425 5424 5422 5419 5417 5416 5415 5413 5411 5412
5400 5396 5392 5389 5385 5382 5378 5374 5371 5369 5367 5365 5364 5363 5360 5357 5356 5356 5355 5355 5356 5356 5357 5357 5357 5359 5361 5362 5362 5364 5364 5365 5366 5366 5365 5364 5364 5364 5364 5366 5367 5367 5369 5373 5375 5377 5379 5380 5381 5382 5382 5383 5386 5389 5390 5390 5390 5391 5393 5395 5396 5398 5400 5400 5402 5403 5404 5406 5408 5409 5410 5410 5410 5411 5412 5411 5411 5410 5407 5406 5405 5403 5402 5400 5399
5381 5377 5373 5370 5366 5363 5359 5355 5352 5349 5347 5345 5343 5342 5340 5337 5335 5333 5332 5332 5332 5332 5333 5333 5333 5335 5338 5340 5341 5342 5344 5346 5347 5346 5344 5344 5345 5346 5347 5349 5350 5350 5352 5356 5359 5361 5362 5364 5365 5366 5367 5369 5372 5374 5376 5376 5377 5378 5379 5381 5383 5385 5386 5387 5389 5390 5392 5393 5395 5396 5397 5397 5397 5398 5399 5398 5398 5397 5396 5395 5393 5392 5390 5389 5388
5363 5358 5354 5351 5347 5344 5340 5337 5334 5331 5328 5326 5324 5323 5321 5319 5317 5314 5312 5311 5311 5311 5311 5310 5310 5312 5314 5317 5320 5321 5323 5324 5324 5323 5322 5324 5326 5328 5329 5330 5332 5332 5334 5339 5343 5345 5346 5347 5348 5350 5352 5354 5357 5359 5361 5362 5363 5364 5366 5367 5369 5371 5372 5374 5376 5377 5379 5381 5382 5384 5385 5384 5385 5386 5386 5386 5385 5385 5384 5383 5381 5379 5378 5377 5378
5345 5341 5337 5333 5330 5327 5324 5321 5318 5315 5312 5310 5309 5307 5305 5303 5302 5299 5297 5295 5294 5294 5293 5292 5291 5292 5294 5297 5300 5303 5302 5302 5302 5302 5302 5304 5306 5308 5309 5311 5312 5313 5315 5320 5325 5328 5329 5331 5332 5334 5336 5339 5341 5344 5346 5347 5348 5350 5352 5354 5356 5358 5359 5360 5362 5364 5366 5368 5369 5371 5372 5372 5372 5373 5373 5373 5373 5373 5372 5371 5369 5368 5367 5366 5367
5330 5325 5322 5319 5315 5312 5309 5307 5304 5302 5299 5297 5295 5293 5291 5290 5289 5287 5285 5283 5281 5280 5279 5278 5276 5276 5278 5280 5284 5285 5283 5282 5283 5285 5285 5286 5288 5290 5291 5293 5295 5295 5297 5301 5306 5309 5312 5314 5316 5319 5321 5324 5326 5329 5331 5333 5334 5336 5338 5340 5342 5344 5346 5347 5349 5351 5353 5355 5357 5358 5360 5360 5361 5361 5362 5362 5362 5361 5361 5360 5360 5358 5357 5357 5357
5315 5312 5308 5306 5303 5300 5298 5295 5293 5291 5289 5287 5285 5282 5280 5278 5277 5276 5274 5272 5271 5269 5268 5266 5265 5264 5265 5268 5269 5269 5267 5267 5269 5270 5269 5270 5273 5275 5276 5277 5279 5280 5282 5285 5288 5291 5294 5297 5300 5303 5307 5309 5312 5314 5317 5319 5321 5322 5324 5327 5329 5331 5333 5335 5337 5339 5340 5343 5345 5346 5348 5349 5350 5351 5351 5351 5351 5351 5351 5351 5350 5350 5348 5348 5348
5303 5300 5297 5295 5292 5290 5288 5286 5284 5283 5281 5279 5277 5275 5272 5270 5268 5266 5264 5262 5261 5260 5258 5257 5255 5253 5255 5257 5257 5255 5255 5256 5256 5256 5256 5257 5260 5262 5264 5264 5265 5267 5269 5272 5274 5277 5279 5283 5286 5289 5292 5295 5298 5301 5303 5306 5308 5310 5312 5314 5316 5319 5321 5323 5325 5327 5329 5331 5333 5335 5337 5338 5339 5340 5341 5342 5342 5341 5341 5341 5341 5341 5341 5340 5340
5293 5290 5288 5286 5284 5282 5280 5278 5277 5275 5274 5273 5271 5268 5266 5263 5260 5259 5256 5253 5251 5250 5250 5249 5246 5245 5246 5247 5246 5245 5246 5246 5245 5245 5246 5247 5248 5250 5252 5252 5253 5255 5258 5260 5262 5265 5267 5270 5273 5276 5279 5282 5285 5289 5291 5294 5296 5298 5301 5303 5305 5307 5309 5311 5313 5315 5317 5320 5322 5324 5326 5328 5329 5330 5331 5332 5332 5332 5333 5333 5333 5333 5333 5332 5332
5284 5282 5279 5278 5276 5275 5273 5272 5270 5269 5267 5266 5265 5263 5260 5256 5253 5251 5250 5247 5244 5242 5241 5240 5239 5238 5238 5239 5237 5237 5238 5238 5237 5237 5237 5238 5239 5240 5241 5242 5243 5245 5248 5250 5252 5254 5257 5260 5262 5265 5268 5270 5273 5277 5279 5282 5285 5287 5289 5292 5294 5296 5298 5300 5302 5304 5307 5309 5311 5314 5316 5318 5319 5320 5321 5323 5323 5323 5324 5324 5324 5324 5324 5324 5324
5276 5274 5272 5271 5270 5268 5267 5265 5264 5262 5261 5259 5258 5257 5255 5253 5249 5245 5242 5241 5239 5236 5234 5233 5232 5230 5230 5230 5230 5230 5230 5229 5230 5230 5230 5231 5232 5232 5232 5232 5233 5236 5239 5240 5242 5244 5247 5250 5253 5256 5258 5261 5263 5266 5269 5271 5274 5276 5278 5280 5283 5285 5287 5289 5292 5294 5296 5298 5301 5303 5305 5307 5309 5311 5312 5313 5314 5315 5315 5315 5316 5316 5316 5316 5316
5269 5267 5265 5264 5263 5262 5260 5259 5257 5256 5255 5253 5251 5250 5249 5248 5246 5242 5237 5234 5233 5231 5229 5228 5226 5224 5223 5223 5223 5223 5223 5223 5223 5223 5223 5223 5224 5224 5224 5224 5225 5227 5229 5231 5232 5234 5237 5240 5243 5246 5249 5252 5254 5256 5259 5261 5263 5266 5268 5270 5272 5275 5277 5279 5281 5284 5286 5289 5291 5293 5295 5298 5299 5301 5302 5303 5304 5305 5306 5306 5307 5307 5307 5307 5308
5261 5260 5258 5257 5257 5255 5254 5252 5251 5250 5248 5247 5245 5244 5242 5241 5240 5239 5236 5231 5228 5225 5224 5222 5221 5219 5218 5216 5216 5216 5216 5216 5216 5216 5216 5216 5216 5217 5216 5216 5217 5219 5220 5221 5223 5225 5227 5230 5233 5236 5239 5242 5245 5247 5249 5252 5254 5256 5258 5260 5261 5264 5266 5269 5272 5274 5276 5279 5281 5283 5285 5288 5290 5291 5293 5294 5295 5296 5297 5298 5298 5298 5299 5299 5300
5254 5253 5251 5250 5249 5249 5247 5246 5245 5243 5242 5240 5239 5238 5236 5235 5233 5232 5231 5229 5226 5222 5219 5217 5216 5215 5213 5211 5210 5209 5209 5209 5209 5209 5209 5209 5209 5209 5209 5209 5209 5210 5212 5213 5214 5216 5218 5221 5223 5227 5229 5232 5235 5237 5240 5242 5244 5246 5248 5250 5252 5254 5256 5259 5262 5264 5266 5269 5271 5273 5275 5278 5280 5281 5283 5285 5286 5287 5288 5289 5290 5290 5291 5291 5292
5248 5246 5245 5243 5242 5241 5240 5239 5238 5237 5236 5234 5233 5231 5230 5229 5227 5225 5224 5223 5222 5220 5217 5214 5212 5210 5209 5207 5206 5204 5203 5203 5202 5202 5202 5202 5202 5202 5202 5202 5202 5202 5203 5204 5205 5207 5209 5211 5214 5217 5220 5222 5225 5228 5230 5232 5235 5237 5239 5241 5243 5245 5247 5249 5252 5254 5256 5259 5261 5264 5266 5268 5270 5272 5274 5275 5277 5278 5279 5280 5281 5282 5283 5283 5284
5241 5240 5238 5237 5235 5235 5233 5232 5231 5229 5229 5227 5226 5225 5223 5222 5221 5219 5218 5216 5215 5214 5212 5210 5208 5206 5204 5203 5201 5200 5198 5197 5197 5196 5196 5195 5195 5195 5195 5195 5195 5195 5195 5196 5197 5198 5200 5203 5205 5207 5210 5213 5215 5218 5220 5223 5225 5227 5230 5231 5233 5235 5237 5239 5242 5244 5247 5249 5252 5254 5256 5258 5260 5262 5264 5266 5267 5269 5270 5271 5273 5273 5274 5275 5276
5235 5233 5232 5230 5229 5228 5227 5225 5223 5222 5221 5220 5219 5218 5217 5215 5214 5212 5211 5210 5208 5207 5206 5205 5203 5201 5199 5198 5196 5195 5193 5192 5191 5191 5190 5189 5189 5188 5188 5188 5188 5188 5188 5189 5189 5190 5192 5194 5196 5198 5201 5203 5206 5208 5211 5213 5215 5218 5220 5222 5224 5226 5228 5230 5233 5235 5237 5240 5242 5244 5246 5249 5251 5253 5255 5257 5258 5260 5261 5263 5264 5265 5266 5267 5267
5228 5227 5225 5223 5222 5221 5220 5219 5217 5215 5214 5213 5211 5210 5209 5208 5207 5205 5204 5203 5202 5200 5199 5198 5196 5195 5194 5193 5191 5190 5188 5187 5186 5185 5184 5184 5183 5182 5182 5182 5182 5182 5182 5182 5182 5183 5184 5185 5187 5189 5192 5194 5196 5199 5201 5204 5206 5208 5211 5213 5215 5217 5219 5221 5224 5226 5228 5230 5233 5235 5237 5239 5241 5244 5246 5248 5250 5251 5253 5254 5255 5257 5258 5259 5259
5222 5220 5218 5216 5215 5214 5213 5211 5210 5209 5207 5206 5204 5203 5202 5200 5199 5198 5197 5196 5194 5193 5192 5191 5189 5188 5187 5187 5186 5184 5183 5182 5181 5180 5179 5178 5178 5177 5177 5176 5176 5176 5176 5176 5176 5177 5177 5178 5179 5181 5183 5185 5187 5190 5192 5194 5197 5199 5202 5204 5206 5208 5210 5213 5215 5217 5219 5221 5223 5225 5228 5230 5232 5234 5237 5239 5241 5242 5244 5245 5247 5248 5249 5251 5252
5217 5215 5212 5210 5208 5207 5205 5204 5202 5201 5200 5198 5197 5195 5194 5193 5192 5191 5189 5188 5187 5186 5184 5183 5182 5181 5180 5179 5179 5178 5177 5176 5175 5174 5173 5173 5172 5172 5171 5171 5171 5170 5170 5170 5170 5171 5171 5172 5173 5174 5176 5177 5179 5181 5183 5186 5188 5190 5193 5195 5197 5199 5201 5203 5206 5208 5210 5212 5214 5216 5219 5221 5223 5226 5228 5230 5232 5234 5235 5237 5238 5240 5241 5243 5244
5211 5209 5206 5204 5202 5200 5198 5196 5195 5193 5192 5190 5189 5187 5186 5185 5184 5182 5181 5180 5179 5178 5177 5176 5174 5173 5172 5171 5171 5170 5170 5170 5169 5168 5168 5167 5166 5166 5166 5166 5165 5165 5165 5165 5165 5165 5166 5166 5167 5168 5169 5170 5172 5174 5175 5177 5179 5181 5184 5186 5188 5190 5192 5194 5196 5199 5201 5203 5205 5208 5210 5212 5214 5217 5219 5221 5223 5225 5227 5228 5230 5232 5233 5235 5236
5205 5203 5200 5198 5195 5193 5191 5189 5187 5186 5184 5182 5180 5179 5177 5176 5175 5174 5173 5172 5170 5170 5169 5167 5166 5165 5164 5163 5163 5162 5162 5162 5162 5161 5161 5161 5160 5160 5160 5160 5160 5160 5160 5160 5160 5160 5160 5161 5161 5162 5163 5164 5165 5167 5168 5170 5172 5174 5175 5177 5179 5181 5183 5185 5187 5190 5192 5194 5197 5199 5201 5203 5206 5208 5210 5212 5214 5216 5218 5220 5222 5223 5225 5227 5228
5199 5197 5194 5191 5189 5186 5184 5182 5180 5178 5176 5174 5172 5170 5168 5167 5166 5165 5164 5163 5161 5160 5160 5159 5158 5156 5155 5154 5154 5154 5153 5153 5153 5153 5153 5153 5154 5153 5153 5153 5154 5154 5154 5154 5154 5154 5155 5155 5156 5156 5157 5158 5159 5160 5161 5163 5165 5166 5168 5169 5171 5173 5175 5177 5179 5181 5183 5185 5188 5190 5192 5194 5197 5199 5201 5203 5205 5207 5209 5211 5213 5215 5217 5219 5220
5194 5191 5188 5185 5182 5180 5177 5175 5173 5171 5169 5166 5165 5162 5160 5159 5157 5156 5155 5154 5152 5151 5150 5149 5148 5148 5146 5145 5144 5144 5144 5144 5144 5145 5145 5145 5146 5146 5146 5146 5147 5147 5147 5148 5148 5148 5149 5149 5150 5151 5151 5152 5153 5154 5155 5156 5158 5159 5160 5162 5163 5165 5167 5169 5171 5173 5175 5177 5179 5181 5183 5185 5188 5190 5192 5195 5197 5199 5201 5203 5205 5207 5209 5210 5212
5189 5186 5183 5180 5177 5174 5171 5168 5166 5164 5161 5159 5157 5155 5153 5151 5149 5148 5146 5145 5144 5143 5142 5140 5139 5139 5138 5137 5136 5135 5135 5135 5135 5135 5136 5136 5137 5138 5138 5139 5139 5140 5141 5141 5141 5142 5142 5143 5144 5145 5145 5146 5147 5148 5149 5150 5151 5152 5153 5154 5156 5157 5159 5161 5163 5165 5167 5169 5171 5173 5175 5177 5179 5181 5184 5186 5188 5190 5192 5194 5196 5198 5200 5202 5204
5184 5181 5178 5175 5172 5168 5165 5162 5160 5157 5154 5152 5150 5148 5145 5143 5142 5140 5139 5138 5137 5135 5134 5133 5132 5131 5130 5129 5128 5127 5126 5126 5125 5125 5126 5127 5128 5128 5130 5131 5132 5132 5133 5134 5135 5135 5136 5136 5137 5138 5139 5140 5141 5141 5142 5143 5144 5145 5146 5147 5148 5150 5151 5153 5155 5157 5159 5161 5163 5165 5167 5169 5171 5173 5175 5177 5180 5182 5184 5186 5188 5190 5192 5193 5195
5178 5175 5172 5169 5166 5163 5160 5157 5154 5151 5149 5146 5143 5141 5139 5137 5135 5133 5132 5130 5129 5128 5127 5126 5125 5123 5123 5122 5121 5120 5119 5118 5117 5117 5117 5117 5118 5119 5120 5122 5123 5124 5126 5127 5128 5128 5129 5129 5130 5131 5132 5133 5134 5135 5136 5136 5137 5138 5139 5140 5141 5143 5144 5146 5147 5149 5151 5153 5155 5157 5159 5161 5163 5165 5167 5169 5171 5174 5176 5178 5179 5181 5183 5185 5187
5171 5169 5166 5163 5160 5157 5155 5152 5149 5146 5143 5141 5138 5135 5133 5130 5128 5126 5125 5123 5122 5121 5120 5119 5118 5117 5116 5115 5114 5113 5112 5111 5110 5110 5109 5109 5109 5109 5110 5112 5114 5116 5117 5119 5120 5121 5122 5122 5123 5124 5125 5126 5127 5128 5129 5130 5130 5131 5132 5133 5134 5135 5137 5138 5140 5141 5143 5145 5147 5149 5151 5153 5155 5157 5159 5161 5163 5165 5167 5169 5171 5173 5175 5177 5179
5165 5162 5159 5157 5154 5151 5148 5146 5143 5140 5138 5135 5133 5130 5127 5125 5122 5120 5118 5117 5115 5114 5113 5112 5111 5110 5109 5108 5107 5107 5106 5105 5104 5103 5102 5102 5101 5101 5101 5102 5104 5106 5109 5111 5113 5114 5115 5116 5117 5117 5119 5119 5120 5121 5122 5123 5123 5124 5125 5126 5127 5128 5129 5131 5132 5134 5135 5137 5139 5141 5143 5145 5147 5149 5151 5153 5155 5157 5159 5161 5163 5165 5167 5169 5171
5160 5156 5153 5150 5148 5145 5142 5139 5137 5134 5132 5129 5127 5125 5122 5119 5117 5114 5112 5110 5109 5107 5106 5105 5104 5103 5103 5102 5101 5100 5099 5099 5098 5097 5096 5095 5094 5094 5094 5094 5095 5097 5099 5102 5104 5106 5108 5109 5110 5111 5112 5113 5114 5114 5115 5116 5117 5118 5118 5119 5120 5121 5122 5124 5125 5126 5128 5130 5132 5134 5136 5138 5140 5142 5144 5146 5147 5149 5151 5153 5155 5157 5159 5161 5163
5153 5150 5147 5144 5141 5138 5135 5133 5130 5128 5125 5123 5121 5119 5116 5114 5111 5109 5107 5105 5103 5101 5100 5099 5098 5097 5096 5096 5095 5094 5093 5092 5092 5091 5090 5089 5088 5088 5087 5087 5088 5089 5091 5093 5096 5099 5101 5102 5103 5104 5105 5106 5107 5108 5109 5110 5110 5111 5112 5113 5114 5115 5116 5117 5118 5119 5121 5123 5124 5126 5128 5130 5132 5134 5136 5138 5140 5142 5144 5146 5148 5150 5152 5153 5155